Wind_Speed
16 17 17 19 20 21 23 23 24 26 27 28 28 27 27 27 28 29 28 28 29 30 32 34 37 38 35 33 33 34 34 34 34 36 36 36 35 34 34 34 34 32 32 32 31 30 29 28 27 27 28 29 30 31 32 33 34 34 35 36 35 32 31 29 29 29 30 31 31 32 32 31 30 29 29 29 28 26 24 24 23 23 22 21 20 20 19
17 17 18 19 20 21 23 24 25 27 27 27 27 27 26 26 26 25 24 24 25 27 29 31 34 36 35 33 33 35 35 36 36 36 37 36 35 34 34 34 34 34 33 32 32 31 30 28 27 27 28 29 30 29 29 31 34 36 35 35 36 35 34 32 31 30 31 32 33 33 33 32 31 29 29 29 28 27 25 24 25 25 25 23 22 22 20
17 18 19 20 21 22 23 25 26 27 27 27 27 27 27 25 22 20 19 20 21 23 25 27 30 33 33 32 32 34 36 35 35 36 36 35 35 34 33 33 34 34 34 34 33 32 31 29 28 28 28 29 29 29 28 28 31 34 35 34 34 35 35 34 33 32 31 32 31 31 32 31 31 29 29 29 28 27 27 26 26 26 26 25 24 23 21
17 18 19 20 21 21 23 24 26 27 27 26 26 26 26 23 20 17 17 17 18 19 22 23 26 29 31 31 30 32 34 34 33 34 35 34 34 33 32 32 33 34 35 35 34 33 33 31 30 29 30 30 29 29 29 28 28 30 32 32 32 32 33 33 33 33 33 31 29 29 30 30 30 30 29 30 30 29 28 28 28 27 27 27 27 25 24
17 18 19 20 20 21 22 24 26 26 26 25 25 25 24 22 19 18 18 18 17 17 19 19 20 24 28 29 29 29 30 31 31 31 33 33 33 32 30 30 31 32 34 35 35 34 34 33 32 31 31 31 31 30 29 28 27 26 26 26 25 27 32 34 35 34 35 35 34 33 32 32 32 32 32 31 31 32 31 31 30 29 29 29 29 28 27
17 18 18 19 20 21 23 24 26 26 25 24 24 25 24 22 20 19 20 18 14 13 15 15 15 19 24 26 26 27 27 28 28 28 30 32 31 30 29 28 28 30 32 34 34 34 34 34 34 33 32 32 33 32 30 28 28 27 25 23 22 23 25 30 36 39 39 38 38 38 36 35 35 36 36 35 35 35 35 35 34 33 33 32 32 31 30
16 17 18 19 20 22 23 24 25 26 25 24 24 25 25 24 22 21 20 16 9 7 11 14 13 13 20 24 23 23 25 25 25 26 28 29 30 29 28 26 26 28 30 32 33 34 34 34 35 34 33 32 32 31 30 29 29 29 28 26 24 23 22 23 28 35 38 40 40 41 41 40 40 40 40 39 38 38 38 38 37 37 37 36 35 34 33
15 17 18 19 21 22 23 25 26 26 26 25 24 25 26 25 25 23 19 12 3 5 7 10 7 5 10 19 22 22 23 23 23 25 27 28 29 29 27 26 25 26 28 30 32 33 33 34 35 35 34 34 33 31 30 28 28 29 30 29 27 25 25 24 24 25 28 32 36 39 41 43 43 44 44 43 42 42 42 41 40 40 39 38 37 37 36
15 16 17 19 21 22 24 25 26 26 27 26 25 25 26 26 26 24 18 11 2 6 9 7 3 5 4 10 18 20 20 21 21 23 25 27 28 28 27 26 25 25 26 29 31 32 33 33 34 34 35 35 35 34 34 32 30 30 31 31 29 27 27 27 28 26 25 25 27 30 34 38 41 43 44 45 46 46 45 44 43 42 41 40 39 39 38
14 16 17 19 21 22 24 25 26 27 27 27 26 25 25 25 26 24 19 13 7 2 9 9 5 6 8 4 13 18 19 19 20 20 23 25 25 25 25 25 25 25 24 26 28 30 32 33 33 34 34 34 34 35 35 34 33 32 31 30 30 29 27 26 27 29 28 26 25 26 28 30 32 34 36 38 40 41 43 43 43 43 43 42 41 40 40
14 16 17 19 21 22 23 24 26 27 27 28 27 25 24 24 25 24 20 14 10 4 5 11 9 5 9 8 10 15 19 21 22 21 21 22 23 23 22 21 23 25 25 26 27 28 29 30 31 32 33 33 34 34 33 33 32 31 30 29 28 28 28 27 27 27 28 28 27 27 28 27 26 26 28 29 29 30 32 34 37 40 41 41 42 41 40
14 16 18 19 21 22 23 24 25 26 26 27 27 26 25 25 24 24 22 17 13 8 2 7 12 9 4 6 7 10 14 20 23 24 22 21 22 24 23 21 21 23 25 27 29 30 30 30 31 31 31 31 33 33 33 33 32 29 27 26 27 28 29 29 27 27 28 29 29 28 28 26 25 26 26 27 27 26 26 26 28 30 32 34 36 36 35
14 16 18 19 21 22 23 24 24 25 26 26 27 28 27 25 25 24 23 20 16 11 6 2 8 12 9 3 2 4 6 9 16 21 21 20 20 21 23 23 23 23 24 25 28 29 31 33 34 33 33 32 33 33 33 33 33 31 29 28 28 29 30 30 29 29 29 29 30 29 28 27 26 27 28 29 29 29 29 27 27 27 28 29 30 30 31
14 16 17 19 20 21 22 23 24 24 25 25 26 27 27 26 25 24 23 22 19 14 10 6 3 7 11 12 10 6 2 2 6 10 12 14 15 16 18 19 21 22 24 25 26 27 29 31 33 35 36 36 35 36 35 34 33 33 32 32 32 32 33 33 33 33 32 30 30 30 30 29 29 29 29 29 29 30 30 29 29 30 31 31 32 32 32
15 16 17 19 20 21 22 23 23 23 24 25 25 26 27 27 26 25 23 22 20 18 14 10 6 3 6 11 14 14 12 9 7 7 8 10 12 13 15 16 18 19 21 23 25 27 28 30 31 32 34 35 36 37 37 36 35 33 32 31 31 32 33 34 34 35 34 33 31 30 30 29 28 28 29 30 30 31 31 31 31 32 33 33 34 34 34
15 16 17 18 19 20 21 22 22 23 23 24 24 25 26 26 26 25 24 22 20 18 16 14 10 6 2 4 8 12 14 15 15 14 13 12 13 14 15 16 17 18 19 21 22 24 26 28 29 30 31 32 34 35 35 36 36 36 35 33 32 31 31 31 31 32 32 32 32 31 30 29 29 29 30 31 32 33 33 34 35 35 35 35 34 35 35
15 16 17 18 18 19 20 21 22 22 23 23 24 24 24 24 25 25 24 22 20 19 17 15 13 10 7 4 1 4 8 11 14 16 17 17 16 16 17 18 19 20 21 22 22 23 25 26 27 28 29 30 31 32 33 34 36 37 37 38 38 37 37 36 35 35 35 35 35 34 34 33 32 32 32 33 34 35 37 38 38 36 35 35 35 35 35
14 15 16 17 18 19 19 20 21 22 22 23 23 23 23 23 23 23 23 22 21 19 17 15 14 12 10 8 6 3 2 4 7 10 13 15 16 17 18 20 21 22 23 24 25 26 27 27 28 28 29 29 30 31 32 33 34 35 37 38 39 40 41 42 41 40 40 40 40 40 40 39 38 37 37 37 37 38 38 38 37 36 36 36 37 37 37
13 15 16 16 17 18 19 19 20 21 21 21 22 22 22 22 22 22 21 21 20 19 18 17 15 13 12 10 8 6 5 3 3 5 7 9 10 12 14 17 20 22 24 26 28 29 30 30 31 32 32 33 33 33 33 33 33 34 35 37 38 39 40 41 42 41 40 40 41 42 43 43 43 42 41 40 39 39 38 37 37 37 37 38 39 39 40
12 13 15 16 17 18 18 19 20 20 21 21 22 22 22 22 22 21 21 20 19 18 17 17 16 14 13 12 10 9 7 6 6 6 6 6 7 8 10 12 14 16 19 22 25 28 30 32 33 34 34 35 35 35 35 35 35 35 36 37 38 39 39 40 41 42 42 42 43 43 43 43 43 43 42 41 41 40 39 39 39 39 39 39 40 41 41
11 12 14 15 16 17 18 19 19 20 21 21 21 22 22 22 22 21 20 20 19 17 16 15 15 14 13 12 12 11 9 9 8 8 8 8 8 8 9 10 11 12 13 15 17 20 23 27 30 32 34 35 35 35 36 36 36 37 37 38 39 39 40 40 41 42 42 43 44 44 44 44 44 43 43 43 43 43 42 42 42 42 42 42 42 43 44
11 12 13 14 16 17 18 18 19 20 20 20 21 21 21 21 21 21 20 20 19 18 16 15 14 13 12 12 11 11 10 10 9 9 9 9 9 9 9 9 10 11 12 12 13 14 15 17 21 24 28 31 33 34 34 34 35 36 36 37 38 39 39 40 40 41 41 41 41 42 42 42 42 42 42 43 43 43 43 43 43 43 43 44 44 44 44
10 12 13 14 16 17 18 19 19 20 20 20 20 21 21 20 20 20 19 19 19 18 17 16 15 13 12 12 11 10 10 10 10 10 10 10 10 10 9 9 9 10 10 11 12 12 12 13 13 15 18 22 25 28 30 31 32 33 34 34 35 36 37 38 38 38 39 39 39 39 39 39 40 40 40 41 41 42 42 42 42 43 43 44 44 44 44
10 11 13 14 15 16 17 18 19 20 20 20 20 20 20 20 20 19 19 18 18 17 17 17 16 15 14 13 12 11 11 11 11 11 11 11 11 10 10 10 10 10 10 10 10 11 11 11 11 11 12 13 16 19 22 24 26 28 29 31 32 33 34 34 35 35 36 36 37 37 38 38 38 38 38 38 38 39 40 40 41 41 41 42 42 42 42
10 11 13 14 15 16 17 18 18 19 19 20 20 20 20 20 20 19 19 18 18 18 18 17 17 16 16 15 14 13 13 12 12 12 12 12 12 12 11 10 10 10 10 10 10 10 10 10 10 10 10 10 11 13 15 17 20 22 24 26 27 29 30 31 32 33 33 34 35 36 36 37 37 37 37 37 36 36 35 35 35 36 36 37 38 39 39
10 11 13 14 15 17 18 18 19 19 19 20 20 20 20 21 21 21 20 19 19 18 18 18 17 17 17 16 15 14 14 13 13 13 13 12 12 12 12 12 11 11 11 11 11 10 10 10 10 10 10 10 10 10 11 12 14 16 18 21 22 24 25 27 28 29 30 31 32 33 34 34 35 36 36 37 37 37 36 36 36 36 36 36 37 38 39
11 12 13 15 16 17 18 19 20 20 20 20 21 21 21 21 21 21 21 20 19 19 18 18 17 17 17 17 16 15 14 14 14 14 13 13 12 12 12 12 12 12 12 11 11 11 11 11 10 10 10 10 10 10 10 10 11 12 13 15 16 18 20 21 23 24 26 27 28 29 30 31 32 32 33 34 35 35 36 37 38 39 40 41 42 43 44
12 13 14 15 17 18 19 20 21 21 21 22 21 21 21 21 21 21 21 21 20 20 19 19 18 18 17 17 17 16 15 15 15 14 14 14 13 12 12 12 13 13 12 12 12 12 12 12 11 11 10 11 11 11 11 11 11 11 11 12 13 14 16 17 18 20 21 22 23 24 25 26 27 28 28 29 30 31 31 33 34 36 37 39 40 42 44
14 14 15 16 17 19 20 20 21 21 22 23 23 22 22 22 22 22 21 21 21 20 20 20 19 19 18 18 17 16 16 15 15 15 15 15 14 14 13 13 13 13 12 13 13 13 13 13 12 12 11 11 11 11 11 12 12 13 13 13 13 14 14 15 16 16 17 18 19 20 20 22 22 23 24 25 26 26 27 28 30 31 32 33 35 36 37
15 16 17 18 19 20 20 21 22 22 22 23 23 23 23 22 22 22 22 22 21 21 21 20 20 20 19 19 18 17 17 16 15 15 15 15 14 15 14 14 14 13 13 13 13 13 13 13 13 13 12 12 12 12 12 13 13 14 14 14 14 14 14 15 15 15 16 16 17 18 19 20 21 21 22 23 24 25 26 27 28 29 30 31 32 33 34
16 17 18 19 20 21 21 22 22 22 22 22 23 23 23 23 22 22 22 22 22 22 22 21 21 20 20 19 19 18 18 17 16 16 16 16 15 14 14 14 14 14 13 13 13 13 13 13 13 13 13 13 12 12 12 13 14 14 14 14 15 15 15 15 15 16 17 17 17 18 18 19 20 20 21 22 23 24 25 26 27 28 29 30 30 31 32
17 18 19 20 21 22 22 22 22 22 22 22 23 23 23 23 23 23 22 22 22 22 22 22 22 21 20 19 19 19 18 17 17 17 17 17 16 15 15 14 14 14 14 14 14 14 14 14 14 14 14 14 13 13 13 13 13 14 14 14 15 15 15 16 16 16 17 17 17 17 17 18 18 19 19 20 21 22 23 24 25 26 27 27 28 29 29
18 19 20 21 22 23 23 23 22 22 22 23 23 23 23 23 23 22 22 22 23 23 23 23 22 21 21 20 20 19 19 18 18 18 18 18 18 17 16 16 15 15 15 15 14 14 14 14 15 15 15 15 14 14 14 14 14 14 14 14 14 14 15 15 15 15 16 16 16 16 16 16 17 17 18 19 20 20 21 22 23 24 25 26 27 27 28
19 20 21 21 22 23 24 23 23 22 22 23 23 23 23 23 23 22 22 23 23 23 23 23 22 22 22 21 20 20 19 19 18 18 18 18 18 18 18 17 17 16 15 15 15 15 15 15 15 15 16 15 15 15 15 14 14 14 14 14 14 14 14 14 15 15 15 15 15 15 15 16 16 17 18 18 19 19 20 21 22 23 24 25 26 26 26
20 20 21 22 23 23 23 24 24 23 23 23 24 23 23 23 23 23 23 23 23 23 23 23 22 22 22 22 21 20 20 20 19 18 17 18 18 18 18 18 18 17 17 16 16 16 16 16 16 16 16 16 16 16 16 15 14 14 14 15 15 15 15 15 15 15 15 15 15 15 15 16 16 17 17 18 19 19 20 21 22 23 23 23 23 23 21
20 21 22 22 23 23 23 23 24 24 24 24 24 24 23 23 23 23 23 23 23 23 23 23 22 22 22 22 22 21 21 20 19 18 17 17 17 18 18 18 19 19 18 18 18 17 17 17 17 17 16 16 16 16 16 16 15 15 15 15 15 15 15 15 15 15 16 15 15 15 16 16 17 17 17 18 18 19 20 21 21 22 21 21 20 18 16
21 21 21 22 23 23 23 23 24 24 24 24 24 24 24 24 24 24 23 23 23 23 23 23 22 22 22 22 22 21 21 21 20 19 18 17 17 17 18 18 19 19 19 19 19 19 18 18 18 18 17 17 16 16 16 17 17 16 16 15 15 15 15 15 15 15 15 15 15 16 16 17 17 17 17 18 18 19 20 20 20 20 19 17 15 13 12
20 21 21 22 23 23 23 24 24 25 25 25 24 24 24 24 24 23 23 23 23 22 22 22 22 22 22 22 21 21 22 21 20 19 18 18 18 18 19 19 20 20 20 20 20 19 19 19 19 19 18 18 17 17 17 17 17 17 16 16 16 16 15 15 15 15 15 15 16 16 17 17 17 16 17 17 18 18 19 19 19 18 16 14 11 11 11
20 20 21 22 23 23 24 25 25 25 25 25 25 25 24 24 24 23 22 22 22 22 21 21 21 21 21 21 21 21 21 21 20 19 18 18 18 19 19 20 21 21 21 21 20 20 20 19 19 19 19 18 18 19 19 18 18 18 17 16 16 16 15 15 15 15 15 15 16 16 17 17 16 16 17 17 17 18 18 18 17 15 13 11 10 10 11
20 21 21 22 23 24 25 25 25 25 25 25 25 25 24 23 23 22 22 22 21 21 21 20 20 20 20 21 21 21 21 21 20 19 19 18 19 19 20 21 21 21 22 21 21 20 20 20 20 19 19 19 19 20 20 19 19 18 18 17 17 16 16 15 15 14 15 15 16 16 16 16 16 16 16 17 17 17 17 16 14 13 11 10 10 10 11
21 21 22 23 24 25 25 25 25 25 25 25 25 24 23 23 22 22 22 21 21 20 20 19 19 19 19 20 21 21 21 21 20 20 19 19 20 21 21 22 22 22 22 22 21 21 20 20 20 19 19 19 20 21 20 20 19 19 18 18 17 17 16 16 15 15 15 15 16 16 16 16 16 16 16 16 16 16 15 14 12 11 11 11 11 11 10
21 22 23 24 25 25 25 25 25 25 25 25 24 23 23 22 21 21 21 20 20 19 18 18 18 19 20 20 21 21 21 21 21 20 20 21 21 22 23 23 24 24 23 22 22 21 20 20 19 19 19 20 21 21 21 20 20 19 19 19 18 18 17 16 15 15 15 15 16 16 16 16 16 16 16 16 15 15 14 12 11 11 11 12 11 11 10
22 23 24 24 24 24 25 25 24 24 24 24 23 23 22 21 21 20 20 19 18 18 17 17 18 19 19 20 21 21 21 21 21 21 22 22 23 24 24 24 25 25 24 24 23 22 20 19 18 18 19 20 20 21 21 20 20 20 20 19 19 18 17 16 16 16 15 15 16 16 16 16 15 15 15 15 15 14 13 12 11 11 12 12 12 11 11
22 23 23 24 23 24 24 24 24 24 24 23 22 22 21 21 20 19 19 18 17 17 17 17 18 18 18 19 20 20 21 21 21 22 23 23 24 25 25 25 25 25 25 25 24 22 20 19 19 18 18 19 20 20 21 21 21 21 21 21 20 19 18 17 17 17 16 16 16 16 16 15 15 15 15 15 14 13 12 11 12 12 13 13 13 12 11
22 22 23 23 24 24 24 24 24 23 23 22 22 21 21 20 19 18 17 16 16 16 16 16 17 17 17 18 19 20 21 21 22 23 24 25 26 27 27 27 26 26 25 25 24 22 21 20 19 18 18 19 20 21 21 21 21 21 21 22 21 20 19 18 17 17 17 16 16 16 16 15 15 15 15 15 14 13 12 12 12 13 13 14 14 13 12
22 22 23 24 25 24 24 24 24 23 23 22 21 21 20 19 18 17 16 15 15 15 15 15 16 17 17 18 19 21 22 23 24 25 26 27 29 29 29 29 29 27 26 25 24 23 21 20 18 18 19 20 21 21 21 21 21 21 21 22 21 21 20 19 18 17 17 16 16 16 16 15 15 15 15 15 14 13 12 12 12 13 14 14 15 14 12
22 23 24 25 26 25 25 25 24 23 22 21 21 21 20 19 17 16 15 14 14 14 15 15 16 17 18 19 20 22 23 24 26 27 28 29 31 32 32 31 30 29 28 27 25 23 20 19 18 19 20 21 22 22 22 22 22 21 21 21 22 22 21 20 18 17 17 17 16 16 16 16 15 15 15 15 14 14 13 13 13 13 14 14 14 14 13
23 24 25 26 26 26 25 25 24 23 21 21 21 20 20 18 16 15 14 13 13 14 14 15 16 17 18 19 21 23 25 26 28 29 30 32 34 34 34 32 30 28 28 27 24 22 20 19 19 20 21 22 22 22 22 22 22 21 21 21 22 22 22 21 19 17 17 17 16 16 16 16 15 15 15 15 15 14 14 13 13 13 14 14 14 14 13
23 25 25 26 27 26 25 24 23 22 21 20 20 20 19 17 15 13 13 13 13 14 15 16 17 18 19 21 23 25 27 29 31 32 34 35 36 35 34 32 30 28 26 25 23 21 20 20 21 22 22 22 22 22 22 21 21 20 20 21 22 22 23 22 20 17 16 16 16 16 16 16 16 16 15 15 15 15 15 15 14 14 14 14 14 14 13
23 25 26 27 27 26 25 24 23 22 21 20 19 18 18 16 14 12 13 13 14 14 16 17 18 19 21 23 25 28 30 32 34 35 36 36 36 35 33 31 30 28 26 25 23 21 20 21 22 22 22 22 22 22 21 21 20 20 20 20 21 22 23 22 21 18 17 16 16 16 16 16 16 16 16 15 15 16 16 16 16 16 15 15 15 14 14
23 25 26 27 27 26 25 23 22 22 22 21 19 18 16 14 12 11 12 13 14 15 17 18 20 22 23 25 28 30 33 35 37 37 36 36 35 34 31 30 29 28 26 25 24 23 22 21 22 22 22 22 22 22 21 20 20 20 20 20 20 21 22 22 21 20 18 16 16 16 16 16 16 16 16 16 16 17 17 18 18 18 17 16 16 15 15
24 25 26 27 26 25 24 24 22 22 22 22 20 18 16 14 13 12 13 14 15 17 19 20 22 24 26 28 30 33 36 38 39 38 37 36 35 33 30 29 28 28 26 25 24 25 24 23 22 22 22 22 22 22 21 21 20 20 19 19 20 20 21 22 22 21 19 18 17 17 16 16 16 16 17 16 17 17 19 19 19 19 19 18 17 17 16
Wind_Direction
323 324 323 324 324 324 323 323 322 321 319 317 314 311 307 303 300 294 287 277 266 257 250 244 240 238 237 234 231 230 228 226 225 228 231 232 232 231 230 229 230 230 232 235 238 239 240 242 244 244 245 245 241 240 240 237 234 234 233 232 232 232 232 232 234 236 235 233 230 230 231 232 233 235 237 239 243 245 246 246 246 247 246 246 249 252 252
327 327 328 328 329 329 328 328 328 327 325 322 319 316 313 309 305 300 293 282 269 256 248 243 239 235 233 231 228 227 227 226 225 227 230 232 232 232 232 230 230 230 231 234 237 240 242 243 245 246 246 247 245 243 242 241 237 235 234 234 234 233 232 231 232 235 236 234 232 230 231 232 232 234 236 238 241 244 244 243 242 243 243 244 245 246 247
329 330 332 333 334 335 334 334 334 333 331 329 326 324 321 317 311 305 300 291 276 260 248 243 238 233 229 227 226 225 226 226 225 226 230 233 234 234 234 232 231 231 231 232 235 239 242 243 245 246 246 247 247 246 244 243 241 238 235 235 236 234 232 231 233 237 240 242 240 237 235 236 237 237 237 239 240 241 242 242 242 243 243 243 243 243 244
332 333 336 338 339 340 340 341 341 340 337 335 334 332 329 324 317 310 305 298 283 264 251 244 239 232 226 223 222 223 225 226 226 226 228 232 234 235 235 233 232 231 232 232 234 237 240 242 242 245 248 248 248 248 246 246 245 242 240 238 237 237 236 235 235 237 239 242 244 241 239 241 242 242 241 241 242 242 242 242 243 243 243 243 244 243 244
336 338 340 343 344 345 346 347 347 346 344 342 342 341 337 331 323 315 308 303 288 265 250 243 238 232 226 221 219 220 223 225 225 226 228 230 233 234 235 234 233 232 232 232 234 235 238 241 241 243 246 249 250 250 250 250 249 248 247 244 242 244 244 240 237 235 234 235 237 237 236 237 239 241 241 240 241 242 242 242 242 242 243 244 245 246 246
340 343 346 347 349 351 352 353 353 352 350 348 348 348 345 340 333 323 316 309 290 258 242 230 224 227 225 221 218 219 221 224 225 225 227 229 232 234 235 235 234 234 233 232 233 235 237 239 241 242 244 247 251 252 252 252 251 250 250 249 249 253 253 248 242 238 234 233 235 237 237 236 236 236 237 237 237 238 240 240 241 241 242 244 246 248 248
346 348 350 352 354 356 357 358 358 357 356 353 351 352 351 348 343 335 328 318 290 241 224 216 208 214 220 218 216 218 220 223 225 224 227 229 231 232 235 236 235 234 234 233 233 235 236 238 240 241 242 244 249 252 252 252 252 252 250 249 250 256 259 256 248 243 239 236 236 237 238 238 239 238 238 238 237 237 237 238 238 240 241 243 246 247 248
350 353 354 356 357 359 1 2 2 2 1 358 355 355 355 353 350 346 343 335 292 177 190 215 202 166 200 212 212 214 218 222 224 224 224 228 231 232 233 235 236 236 235 234 234 235 236 238 240 242 242 242 244 248 249 249 250 252 252 251 252 257 258 257 254 250 246 243 241 241 240 240 241 241 241 242 242 241 239 238 238 239 241 244 246 247 248
354 356 357 358 0 2 4 5 5 5 5 3 1 359 357 357 355 354 358 0 342 174 177 205 192 94 116 206 210 210 211 214 220 225 225 227 230 232 233 233 235 236 236 236 236 236 237 239 240 242 244 244 245 246 248 249 251 255 257 257 259 263 262 258 257 255 253 249 248 247 247 246 246 246 245 244 244 241 239 238 238 238 239 242 245 247 247
358 360 1 2 3 5 6 7 7 8 8 8 7 5 3 1 0 359 4 14 15 192 195 204 191 90 74 146 203 210 209 206 211 221 225 225 226 229 232 232 232 231 232 236 237 237 239 241 242 243 245 247 249 251 252 254 255 258 261 264 265 266 265 260 258 258 258 255 250 248 248 248 249 251 251 249 246 243 240 239 240 240 239 241 243 246 247
2 3 5 5 5 6 7 8 9 9 10 11 11 11 9 8 7 7 9 17 24 25 215 214 206 139 86 108 174 200 210 215 217 218 221 225 225 225 226 228 229 228 228 231 234 237 239 241 243 244 246 248 251 253 255 257 259 260 263 265 265 266 265 263 260 258 257 255 252 248 247 247 248 250 252 252 249 246 244 243 243 243 243 242 243 244 245
4 6 7 8 7 8 9 9 10 11 12 13 14 15 15 15 14 15 16 20 25 29 3 229 222 209 142 98 132 171 198 216 223 223 221 224 225 222 220 219 222 226 226 227 231 235 238 240 241 243 245 247 249 251 253 256 259 261 261 262 263 263 264 265 263 260 255 252 251 251 250 250 250 250 250 250 250 249 248 247 245 245 244 243 242 243 242
7 8 9 9 9 8 9 10 11 12 13 14 16 18 19 20 21 22 24 26 28 32 32 325 242 231 230 226 146 137 160 201 220 224 223 222 222 221 219 219 221 225 228 230 232 235 238 240 242 244 245 246 247 249 251 253 256 257 257 259 262 263 263 264 265 263 260 255 253 253 253 252 252 251 252 251 251 251 252 251 251 250 250 249 248 247 245
9 9 9 9 8 8 9 10 11 13 14 16 18 19 22 25 27 28 29 31 34 38 40 29 325 257 250 252 251 251 252 202 212 221 224 225 228 229 229 230 231 233 235 237 238 240 242 243 245 247 248 248 249 250 251 253 255 256 257 257 259 261 262 264 265 266 266 264 261 258 256 254 252 252 253 253 253 253 253 254 255 257 257 257 257 256 255
12 11 10 8 8 8 9 10 11 13 14 16 17 19 22 26 29 30 32 34 38 43 46 42 30 333 277 267 262 260 263 266 262 257 251 247 247 247 245 244 244 243 242 242 243 244 245 246 247 248 249 250 251 253 253 254 254 254 254 254 255 257 261 263 265 267 268 267 265 263 260 257 255 254 254 255 256 257 258 259 261 263 263 263 262 261 261
14 12 11 10 10 10 11 12 14 14 15 16 17 19 21 24 28 30 32 33 37 43 47 49 49 44 358 286 271 266 266 267 269 272 273 270 265 262 259 256 254 253 252 250 250 250 250 250 250 250 250 251 252 253 253 253 252 251 252 252 252 252 253 254 255 258 260 260 258 257 257 255 254 255 255 255 256 257 259 261 264 266 267 266 265 264 263
14 13 12 12 11 12 13 14 15 16 16 16 18 18 19 22 26 29 30 31 33 38 42 45 49 51 52 48 333 272 266 265 265 267 269 270 269 266 264 261 259 258 258 258 257 257 256 255 255 254 254 253 253 254 254 253 252 251 251 251 251 250 250 249 248 248 251 255 255 253 253 252 251 251 252 253 254 255 257 260 263 265 265 265 264 263 262
13 13 13 12 12 13 13 14 15 16 17 17 17 18 19 21 24 26 28 28 30 33 34 36 38 41 43 47 47 34 328 273 265 263 265 266 267 266 265 263 261 260 259 259 258 258 258 258 258 258 258 258 257 256 255 254 254 252 252 252 252 252 251 252 252 251 253 256 257 256 256 256 256 255 255 256 256 256 257 260 261 261 260 260 260 261 260
12 12 11 11 11 12 12 12 13 14 15 15 16 17 19 20 22 24 25 25 27 28 29 30 31 33 34 34 32 26 16 350 312 285 273 270 268 267 266 265 264 262 260 258 257 256 256 256 256 257 258 258 258 257 256 255 254 253 252 251 251 251 251 252 253 254 254 255 256 257 257 257 258 258 259 260 259 259 259 260 259 257 257 257 257 258 258
9 10 8 8 8 8 9 9 10 11 12 12 13 15 16 18 20 21 22 22 22 22 23 23 24 25 26 25 22 16 9 359 345 328 313 299 289 281 275 272 269 267 264 261 259 257 255 255 254 254 254 254 254 255 254 254 253 252 251 250 250 250 250 250 251 252 253 254 256 257 258 258 259 259 260 261 261 262 262 261 260 259 258 257 257 258 258
4 4 4 4 3 4 5 6 7 8 9 10 11 12 12 14 15 16 18 18 18 18 18 17 16 16 16 16 15 11 6 1 355 347 336 326 314 302 293 288 284 279 275 272 269 265 262 259 257 254 253 252 252 252 251 251 251 250 250 250 250 250 250 250 250 250 251 253 254 256 257 258 259 260 260 261 262 263 263 263 262 262 262 261 261 261 261
358 357 358 358 359 359 360 1 2 3 4 6 8 8 9 11 11 11 12 13 14 14 14 12 10 9 7 6 5 1 358 356 352 349 345 340 334 326 318 310 300 292 287 283 280 278 275 270 265 261 257 255 253 251 251 250 250 250 250 250 250 251 251 252 252 253 253 254 255 256 257 257 258 259 259 260 261 262 262 263 263 263 263 263 263 263 263
351 352 353 353 354 355 356 356 357 358 359 1 2 4 5 6 6 6 7 8 9 9 9 8 5 3 2 0 357 352 349 348 346 344 343 342 340 336 331 325 317 308 301 294 289 288 286 284 280 274 267 262 258 255 253 251 250 250 251 251 251 252 253 253 255 255 256 257 257 258 258 258 259 259 259 260 260 260 261 261 261 262 263 263 263 263 262
345 348 350 351 351 352 353 354 354 354 355 356 357 359 1 1 1 2 3 4 3 3 4 3 2 1 359 357 354 349 345 342 340 338 337 337 337 335 333 331 326 321 315 308 302 298 295 293 292 289 284 276 268 262 258 255 253 252 251 251 251 252 253 254 255 256 256 257 258 259 259 260 260 261 261 261 261 262 262 263 263 263 264 264 264 265 265
343 346 348 348 349 349 350 351 352 352 352 353 354 355 356 357 357 358 359 359 358 358 358 358 359 358 356 353 352 349 345 342 338 335 332 332 331 330 330 329 328 326 323 320 315 309 304 300 297 296 295 289 281 274 267 262 258 255 254 253 252 252 253 253 254 255 255 256 256 257 258 259 259 259 259 259 258 258 259 260 261 262 262 263 263 264 265
340 344 345 345 346 347 347 348 348 349 350 350 351 352 352 353 354 355 355 355 354 353 353 353 354 354 353 350 349 347 345 342 339 335 332 330 329 327 325 323 324 324 324 323 321 316 312 307 303 300 299 295 291 288 283 275 267 261 258 256 256 255 255 254 254 255 256 256 257 258 258 258 258 259 259 258 257 256 255 255 255 255 254 254 255 256 256
335 340 342 342 343 344 345 345 345 346 346 347 348 349 349 350 350 351 351 352 351 350 350 349 348 349 349 347 345 344 343 342 341 338 334 331 328 326 323 321 320 321 322 321 319 317 315 313 309 304 300 296 294 293 289 284 278 271 265 262 260 258 258 257 257 257 257 257 258 258 259 260 260 260 261 261 261 261 260 259 258 257 256 256 255 256 256
330 335 337 338 339 340 341 342 342 343 343 343 344 345 346 346 346 347 347 348 348 347 347 346 345 345 345 344 342 341 341 341 340 338 335 332 330 329 325 321 318 317 317 316 315 315 314 314 311 306 302 298 294 291 287 283 280 277 273 269 266 263 262 262 261 261 261 262 262 262 263 263 263 263 263 263 263 263 263 262 262 261 260 260 260 260 260
325 329 331 333 335 336 337 338 339 340 340 340 340 341 343 343 343 343 343 344 344 344 345 344 342 341 341 341 339 338 338 337 337 337 335 333 331 331 329 324 320 317 315 314 312 311 312 311 310 307 303 299 295 290 286 283 280 278 276 274 272 270 269 269 268 268 268 267 266 266 265 264 265 265 264 264 265 265 265 264 264 264 264 264 264 264 265
320 323 326 328 330 332 333 334 335 337 337 336 336 337 339 339 340 340 339 339 340 341 341 342 341 338 338 338 337 335 335 336 334 334 334 334 332 330 330 328 325 322 318 314 312 309 308 307 306 305 302 298 295 290 287 285 284 283 282 280 278 276 274 271 270 269 267 265 264 263 263 263 263 264 264 265 265 265 265 266 266 266 266 267 267 268 268
315 318 320 322 324 326 328 330 331 333 334 333 333 334 336 337 337 337 336 336 336 337 338 338 338 336 335 336 335 334 334 334 332 331 332 332 331 331 330 328 326 324 321 316 312 307 304 302 301 300 299 297 295 293 291 289 288 287 286 283 280 278 276 274 272 270 268 267 266 266 265 266 266 266 267 267 267 267 267 267 268 268 269 269 270 271 271
310 313 316 318 320 322 324 326 328 330 331 330 330 331 334 334 334 333 333 332 333 334 333 334 334 334 333 333 333 332 333 333 331 330 329 329 330 331 331 329 326 324 322 319 315 311 307 304 301 299 297 296 295 295 293 292 290 289 287 285 282 280 278 277 276 274 273 272 272 271 271 271 271 271 271 270 270 270 271 271 272 273 273 274 275 275 275
307 310 313 315 317 319 321 323 325 327 327 327 327 330 332 331 331 331 330 330 330 330 330 330 330 330 330 331 331 331 332 332 331 328 326 327 328 330 330 330 328 325 323 320 318 315 312 308 304 301 299 297 297 296 294 292 291 289 287 285 283 282 281 280 278 277 276 276 276 276 277 276 276 276 276 276 276 276 277 278 279 279 280 280 281 281 281
305 308 311 313 315 317 318 320 322 324 325 324 325 328 330 329 329 328 328 328 328 328 328 328 327 327 328 329 329 330 330 331 330 328 326 326 327 328 328 328 327 326 325 322 319 316 314 311 308 305 302 300 299 296 294 292 291 289 287 285 285 285 284 283 282 281 281 281 280 280 280 281 281 281 282 282 283 283 284 284 284 284 285 285 284 283 282
304 307 310 312 314 314 316 318 320 322 323 323 324 326 327 327 327 327 326 326 326 326 326 326 326 325 326 327 328 329 329 329 329 328 325 324 325 326 326 326 326 327 326 324 321 317 314 313 311 308 306 305 302 299 296 293 290 287 286 286 287 287 287 286 285 283 283 283 283 282 282 282 283 284 285 286 287 287 287 287 287 287 287 285 284 282 278
302 306 309 310 311 312 313 316 318 319 321 322 323 325 326 326 325 325 325 326 325 325 325 325 325 325 325 326 327 328 327 327 328 327 324 323 324 324 324 325 326 327 327 325 322 318 315 313 311 309 309 308 306 302 298 294 291 288 287 286 287 287 287 286 284 283 283 283 284 283 282 283 284 286 287 288 289 289 289 289 289 289 288 286 282 276 268
302 305 307 308 308 310 311 313 315 317 319 320 321 323 324 324 324 324 324 324 324 324 324 324 325 325 325 325 326 327 326 326 327 326 325 324 324 324 325 326 326 327 327 325 322 319 317 314 310 309 308 308 306 303 298 295 291 289 287 286 286 286 285 284 282 282 283 283 282 281 281 283 285 287 288 289 289 290 290 291 291 291 290 285 276 266 260
301 303 304 305 306 308 310 312 313 315 317 318 319 320 321 322 322 323 323 323 323 324 324 324 324 324 324 325 326 326 326 325 325 325 324 324 324 325 327 328 328 327 325 323 322 320 317 313 309 308 308 307 304 301 298 296 294 292 290 287 286 284 284 283 282 283 283 281 280 280 280 282 284 286 287 289 290 290 292 293 293 293 289 278 264 255 256
299 301 302 304 305 307 309 310 312 314 316 317 317 319 319 320 321 322 322 322 323 324 324 324 324 324 324 325 325 326 325 324 324 324 323 323 324 325 326 327 326 325 323 323 322 321 317 312 310 308 307 304 301 299 298 297 297 296 294 291 288 285 283 283 283 283 282 280 278 278 278 281 283 285 286 288 290 291 293 294 293 291 281 264 250 251 257
298 299 301 303 305 306 308 310 312 313 314 315 316 317 318 319 320 321 322 323 324 324 324 324 324 324 324 324 324 325 325 324 324 323 322 321 322 323 324 325 325 324 323 323 323 321 318 314 311 308 305 302 299 297 297 297 297 297 296 294 290 287 284 283 283 283 281 279 278 277 277 278 281 282 284 287 289 290 292 292 291 284 270 250 244 252 257
298 299 301 303 305 307 308 310 311 312 313 314 315 316 317 319 320 321 322 323 324 324 325 325 324 324 324 324 324 325 326 325 324 322 321 320 320 321 322 323 323 322 322 322 322 321 320 317 313 309 305 301 297 296 296 296 296 296 295 295 294 291 289 286 284 283 281 279 277 275 274 275 277 279 281 285 286 288 290 289 284 275 259 244 244 252 256
297 300 302 304 306 307 309 309 310 311 312 313 315 316 317 319 321 322 323 323 324 325 326 326 325 325 325 325 326 326 326 326 324 322 320 319 320 320 321 320 320 319 320 320 320 320 321 319 314 309 304 299 297 296 295 294 294 293 293 293 293 293 292 290 287 284 281 278 275 273 272 272 274 276 279 282 284 285 286 283 274 263 251 242 244 251 253
297 300 302 303 306 308 309 310 311 312 312 313 315 315 317 320 321 322 323 324 324 325 326 326 326 327 327 327 327 328 327 327 325 322 320 319 319 318 317 317 316 317 318 318 318 319 321 319 314 308 302 298 296 295 293 292 291 291 290 290 291 292 293 291 287 283 280 277 275 272 270 270 272 274 277 279 281 281 279 275 265 255 245 241 245 250 249
298 301 302 303 306 309 310 310 312 313 313 314 315 316 318 321 323 323 323 324 325 326 328 329 329 329 329 329 329 328 328 328 325 321 319 318 316 315 314 314 315 316 316 316 316 317 318 318 315 309 302 297 295 293 292 291 290 290 289 290 290 292 293 292 288 284 281 278 276 272 269 268 269 271 274 276 276 275 272 267 259 251 244 241 245 248 247
299 301 302 303 306 309 311 311 312 313 314 315 316 318 320 322 323 323 323 324 326 328 330 331 331 331 332 332 330 330 329 327 323 320 318 317 315 314 314 314 315 316 315 314 314 315 315 316 314 308 301 296 293 292 292 292 291 290 290 290 291 292 292 291 289 285 282 280 277 274 270 266 265 267 271 273 272 269 265 259 252 248 244 242 244 247 248
299 300 301 303 306 309 312 313 314 314 315 316 318 318 320 322 322 322 322 324 326 328 330 331 332 333 334 333 331 329 327 324 320 319 318 317 315 314 315 315 316 316 316 314 314 313 314 314 311 304 297 293 292 292 293 293 292 291 291 290 290 290 290 290 289 287 284 282 279 276 272 267 264 265 267 269 268 264 258 253 248 246 243 242 243 245 248
298 299 301 302 305 309 312 313 314 315 316 317 318 318 319 320 322 323 323 323 325 327 329 331 332 331 331 330 327 325 322 320 320 321 321 319 318 318 319 318 318 317 316 315 315 314 314 312 306 298 293 292 292 293 294 294 293 293 291 290 289 289 289 290 290 288 285 282 280 276 272 267 264 263 264 265 263 258 252 247 244 243 243 242 242 243 245
296 298 300 301 304 307 311 313 314 315 316 317 317 317 316 318 322 323 321 320 321 324 326 328 329 328 327 325 323 321 320 321 323 324 323 321 321 322 322 322 320 318 315 315 316 316 313 307 300 294 292 293 294 295 295 295 294 293 291 290 288 288 288 289 290 288 285 281 279 276 272 267 264 262 262 262 259 254 249 244 241 240 241 243 242 242 241
294 295 298 300 303 306 309 311 313 314 315 316 315 314 313 316 321 321 316 314 317 320 323 324 324 322 321 321 321 321 322 324 325 326 325 323 323 324 324 323 322 319 316 315 315 314 310 304 298 295 294 294 294 295 296 296 295 294 291 289 287 286 286 287 288 286 283 279 276 274 271 267 263 260 259 259 257 250 244 240 239 238 240 242 242 239 236
291 293 296 299 300 303 307 311 312 313 314 314 312 310 310 314 318 316 310 309 312 316 317 318 317 317 318 321 324 324 324 325 327 327 326 324 324 324 324 322 320 319 317 316 313 309 304 300 297 296 295 295 295 295 296 296 296 294 291 288 286 285 285 285 286 285 282 278 275 272 270 266 262 258 256 255 253 247 241 238 237 236 237 240 241 238 232
290 292 295 297 298 302 306 310 312 313 313 313 311 309 308 308 308 302 298 301 306 310 312 313 314 317 321 324 326 325 324 325 327 328 326 324 323 323 323 320 318 317 316 314 310 305 301 299 297 296 296 296 295 295 296 297 296 295 292 288 285 283 283 283 284 283 281 278 274 271 269 265 261 256 253 251 249 246 241 237 235 234 234 236 239 237 231
290 292 294 296 298 301 305 308 310 310 310 310 310 308 306 302 299 296 297 302 307 309 311 313 316 320 324 326 325 324 325 326 327 327 326 323 322 321 320 318 316 314 313 311 307 303 301 300 299 297 296 296 296 296 297 297 297 295 293 290 286 282 281 281 282 283 282 280 275 271 268 265 261 255 251 248 247 246 243 239 235 234 233 234 235 235 232
Height
5631 5630 5628 5626 5624 5622 5620 5618 5616 5613 5610 5607 5605 5603 5601 5599 5597 5595 5594 5593 5593 5593 5594 5595 5596 5598 5601 5605 5607 5609 5611 5614 5616 5617 5619 5621 5624 5627 5630 5633 5635 5637 5639 5641 5642 5645 5647 5649 5650 5652 5653 5654 5656 5658 5659 5660 5662 5664 5666 5667 5669 5670 5672 5674 5675 5676 5678 5679 5680 5681 5683 5685 5686 5688 5689 5691 5692 5694 5695 5697 5698 5699 5700 5701 5702 5703 5704
5629 5628 5626 5624 5622 5620 5618 5615 5613 5610 5607 5604 5601 5599 5597 5594 5592 5589 5588 5587 5587 5587 5588 5589 5591 5593 5596 5599 5601 5603 5606 5608 5611 5613 5615 5617 5620 5623 5626 5629 5632 5634 5636 5638 5639 5641 5643 5645 5647 5649 5650 5651 5652 5654 5656 5657 5658 5660 5661 5664 5665 5667 5668 5669 5671 5673 5674 5675 5676 5678 5679 5681 5683 5685 5686 5688 5689 5691 5692 5694 5695 5696 5697 5698 5700 5700 5702
5628 5626 5624 5623 5621 5618 5616 5613 5610 5607 5604 5601 5598 5595 5592 5589 5587 5585 5584 5582 5582 5582 5583 5584 5585 5588 5590 5593 5596 5599 5601 5604 5607 5610 5612 5614 5617 5620 5623 5625 5628 5630 5632 5634 5636 5638 5639 5642 5644 5645 5646 5648 5649 5651 5652 5654 5655 5656 5658 5660 5662 5663 5664 5666 5668 5669 5671 5672 5674 5676 5677 5678 5680 5682 5683 5685 5686 5688 5689 5691 5692 5693 5694 5696 5697 5698 5700
5626 5625 5623 5621 5619 5617 5614 5611 5608 5605 5601 5598 5595 5592 5588 5585 5583 5582 5581 5579 5578 5578 5579 5580 5581 5583 5586 5589 5592 5595 5597 5600 5604 5606 5609 5611 5613 5616 5619 5622 5624 5627 5629 5631 5633 5635 5636 5638 5640 5641 5643 5644 5646 5648 5649 5650 5652 5653 5655 5656 5658 5659 5660 5663 5665 5667 5668 5670 5672 5674 5675 5676 5677 5679 5680 5682 5683 5684 5686 5687 5688 5690 5691 5692 5693 5695 5697
5625 5623 5622 5620 5618 5615 5613 5610 5606 5603 5600 5596 5593 5590 5586 5583 5581 5579 5577 5576 5575 5574 5575 5577 5578 5580 5582 5585 5588 5591 5594 5597 5600 5603 5606 5608 5610 5613 5615 5618 5620 5623 5625 5628 5630 5632 5633 5635 5637 5638 5640 5641 5643 5644 5646 5647 5648 5650 5652 5653 5655 5656 5657 5659 5661 5663 5665 5666 5667 5669 5671 5672 5673 5675 5676 5678 5679 5681 5682 5683 5685 5686 5688 5689 5690 5692 5693
5624 5622 5621 5619 5617 5614 5612 5609 5605 5602 5598 5595 5591 5588 5585 5581 5579 5576 5574 5572 5571 5571 5572 5574 5576 5578 5580 5582 5586 5588 5591 5594 5597 5600 5603 5605 5607 5610 5612 5615 5617 5619 5621 5624 5626 5628 5630 5632 5633 5635 5637 5638 5639 5641 5642 5644 5645 5647 5648 5650 5651 5652 5653 5655 5657 5658 5660 5662 5663 5664 5666 5667 5668 5669 5671 5673 5675 5676 5677 5679 5681 5682 5684 5685 5686 5688 5690
5623 5622 5620 5618 5615 5613 5611 5608 5604 5601 5597 5594 5591 5587 5584 5580 5577 5574 5571 5569 5568 5569 5570 5572 5574 5575 5577 5580 5583 5586 5589 5592 5595 5598 5600 5602 5605 5607 5610 5612 5614 5616 5618 5620 5623 5625 5627 5629 5630 5632 5634 5636 5637 5638 5640 5641 5642 5643 5645 5647 5649 5650 5651 5652 5654 5654 5656 5657 5659 5660 5661 5662 5664 5665 5666 5668 5670 5672 5673 5675 5676 5678 5679 5681 5682 5684 5685
5623 5621 5619 5617 5615 5612 5610 5607 5604 5600 5597 5593 5590 5586 5583 5579 5576 5572 5569 5567 5566 5567 5569 5571 5573 5574 5574 5577 5580 5583 5586 5589 5592 5595 5597 5599 5602 5604 5607 5609 5611 5613 5615 5617 5619 5621 5623 5625 5627 5629 5631 5632 5634 5635 5637 5639 5640 5640 5641 5643 5646 5647 5648 5650 5651 5653 5653 5654 5655 5656 5657 5658 5660 5661 5663 5664 5666 5667 5668 5670 5672 5674 5675 5676 5678 5680 5681
5623 5621 5619 5616 5614 5612 5609 5606 5603 5600 5597 5593 5589 5586 5582 5578 5575 5571 5568 5566 5566 5567 5569 5570 5571 5572 5573 5575 5578 5581 5584 5587 5590 5592 5595 5597 5600 5602 5604 5606 5608 5610 5612 5614 5616 5618 5620 5622 5624 5625 5627 5629 5630 5632 5633 5635 5637 5638 5638 5640 5642 5643 5645 5646 5648 5649 5650 5651 5652 5653 5654 5655 5656 5658 5659 5661 5661 5662 5664 5665 5667 5669 5671 5672 5674 5675 5677
5622 5621 5619 5616 5614 5611 5609 5606 5603 5600 5597 5593 5590 5586 5583 5579 5575 5571 5568 5567 5566 5567 5568 5570 5571 5573 5574 5575 5578 5580 5583 5585 5589 5591 5593 5595 5598 5599 5602 5604 5606 5608 5610 5611 5613 5615 5617 5619 5620 5622 5624 5625 5627 5628 5629 5631 5632 5634 5635 5637 5638 5639 5641 5643 5644 5645 5646 5648 5648 5649 5650 5651 5653 5654 5656 5657 5658 5659 5660 5662 5663 5665 5666 5668 5669 5671 5672
5622 5620 5618 5616 5614 5611 5609 5606 5603 5600 5597 5594 5590 5587 5584 5580 5576 5572 5570 5568 5567 5568 5568 5570 5572 5574 5575 5577 5579 5581 5583 5585 5588 5590 5591 5593 5596 5598 5600 5602 5603 5605 5608 5609 5610 5612 5614 5616 5617 5619 5621 5622 5623 5624 5626 5627 5628 5630 5632 5633 5635 5635 5636 5638 5639 5641 5642 5643 5644 5645 5646 5648 5649 5651 5652 5653 5655 5656 5657 5659 5659 5661 5662 5663 5664 5666 5667
5622 5620 5618 5616 5614 5611 5609 5607 5604 5601 5598 5595 5592 5588 5585 5581 5578 5574 5572 5570 5569 5569 5570 5571 5573 5575 5576 5577 5579 5581 5583 5585 5587 5589 5591 5592 5594 5596 5598 5600 5601 5603 5605 5606 5607 5609 5611 5612 5614 5616 5618 5619 5620 5621 5622 5624 5625 5627 5629 5630 5631 5632 5633 5633 5635 5636 5638 5639 5640 5641 5643 5645 5646 5648 5649 5650 5651 5652 5653 5654 5655 5656 5658 5659 5660 5661 5662
5622 5620 5618 5616 5614 5612 5609 5607 5605 5602 5599 5596 5593 5589 5586 5583 5580 5577 5574 5572 5571 5571 5571 5572 5574 5576 5577 5578 5580 5582 5584 5585 5586 5588 5590 5591 5593 5595 5596 5598 5599 5600 5602 5603 5605 5606 5608 5609 5611 5612 5614 5615 5617 5618 5619 5621 5622 5624 5626 5627 5628 5628 5629 5629 5630 5631 5633 5634 5636 5638 5639 5641 5642 5644 5645 5646 5647 5648 5649 5650 5652 5653 5654 5655 5656 5657 5658
5622 5620 5618 5616 5614 5612 5610 5607 5605 5602 5600 5597 5594 5591 5589 5586 5583 5580 5578 5576 5574 5573 5573 5574 5575 5577 5578 5579 5581 5582 5584 5585 5587 5588 5589 5591 5592 5594 5595 5596 5597 5599 5600 5601 5602 5604 5605 5606 5608 5609 5610 5612 5613 5614 5616 5618 5619 5620 5622 5623 5624 5624 5625 5625 5626 5627 5628 5630 5632 5633 5635 5636 5638 5639 5640 5641 5642 5643 5645 5646 5647 5648 5649 5650 5651 5652 5653
5622 5620 5618 5616 5615 5613 5610 5608 5606 5603 5601 5598 5595 5593 5590 5588 5585 5583 5581 5579 5577 5576 5576 5576 5577 5578 5579 5580 5581 5583 5584 5586 5587 5588 5589 5590 5591 5592 5593 5594 5595 5596 5597 5598 5599 5600 5602 5603 5604 5605 5606 5608 5609 5610 5612 5613 5615 5616 5618 5619 5620 5621 5621 5622 5622 5622 5623 5624 5626 5627 5629 5632 5634 5635 5636 5637 5638 5638 5639 5640 5641 5643 5644 5645 5646 5647 5648
5622 5620 5618 5617 5615 5613 5611 5609 5606 5604 5602 5599 5597 5594 5592 5590 5587 5585 5583 5582 5580 5579 5579 5578 5579 5579 5580 5581 5582 5583 5584 5585 5586 5587 5589 5590 5590 5591 5592 5592 5593 5594 5595 5596 5596 5597 5598 5599 5600 5601 5603 5604 5605 5606 5607 5609 5610 5612 5613 5615 5616 5617 5618 5619 5619 5619 5619 5620 5621 5622 5624 5627 5629 5630 5631 5632 5633 5634 5635 5635 5636 5638 5639 5639 5640 5641 5642
5622 5620 5619 5617 5615 5613 5611 5609 5607 5605 5603 5600 5598 5596 5594 5592 5589 5587 5586 5584 5583 5582 5581 5581 5580 5580 5581 5581 5582 5582 5583 5584 5585 5586 5587 5588 5589 5589 5590 5591 5591 5592 5592 5593 5594 5594 5595 5596 5597 5598 5598 5600 5601 5602 5603 5604 5605 5607 5609 5610 5611 5612 5613 5614 5615 5616 5617 5617 5617 5618 5620 5622 5624 5625 5626 5627 5628 5629 5630 5630 5632 5634 5634 5634 5635 5636 5636
5622 5620 5619 5617 5616 5614 5612 5610 5608 5606 5604 5601 5599 5597 5595 5593 5591 5589 5588 5587 5585 5584 5583 5582 5582 5582 5581 5581 5582 5582 5582 5583 5583 5584 5584 5585 5586 5586 5587 5587 5588 5588 5589 5590 5590 5591 5591 5592 5593 5593 5594 5595 5596 5597 5598 5600 5600 5602 5603 5604 5606 5607 5608 5608 5610 5611 5613 5613 5613 5614 5616 5618 5619 5620 5621 5622 5622 5623 5625 5626 5628 5629 5629 5629 5629 5630 5630
5622 5620 5619 5617 5616 5614 5612 5610 5609 5607 5605 5603 5601 5599 5597 5595 5593 5591 5590 5589 5587 5586 5585 5584 5583 5583 5582 5582 5582 5582 5582 5582 5582 5582 5583 5583 5583 5583 5583 5583 5584 5584 5584 5585 5586 5586 5587 5587 5588 5589 5589 5590 5591 5592 5593 5595 5596 5597 5598 5599 5600 5601 5602 5603 5604 5606 5607 5607 5608 5609 5611 5613 5614 5615 5615 5616 5616 5617 5619 5621 5622 5622 5622 5623 5624 5624 5624
5622 5620 5619 5617 5616 5614 5613 5611 5609 5607 5606 5604 5602 5600 5598 5596 5594 5593 5591 5590 5589 5588 5587 5586 5585 5584 5583 5583 5582 5582 5582 5581 5581 5581 5581 5581 5581 5581 5581 5581 5581 5581 5581 5581 5581 5582 5582 5582 5583 5584 5585 5585 5586 5587 5588 5589 5590 5591 5592 5593 5594 5595 5596 5597 5598 5600 5601 5602 5602 5604 5605 5607 5609 5609 5609 5610 5610 5611 5613 5614 5615 5615 5616 5617 5617 5618 5618
5621 5620 5619 5618 5616 5614 5613 5611 5609 5608 5606 5604 5602 5600 5599 5597 5595 5594 5592 5591 5590 5589 5588 5587 5586 5585 5584 5584 5583 5582 5582 5581 5581 5581 5580 5580 5580 5579 5579 5579 5579 5578 5578 5578 5578 5578 5578 5578 5578 5579 5579 5580 5581 5582 5582 5583 5584 5585 5587 5587 5588 5589 5591 5592 5593 5594 5595 5596 5596 5598 5600 5601 5602 5602 5603 5603 5604 5605 5606 5607 5608 5608 5609 5610 5610 5611 5611
5621 5620 5619 5617 5616 5615 5613 5611 5610 5608 5606 5605 5603 5601 5599 5598 5596 5594 5593 5592 5590 5589 5588 5588 5587 5586 5585 5584 5583 5582 5582 5581 5581 5580 5580 5579 5578 5578 5577 5577 5576 5576 5576 5575 5575 5575 5574 5574 5574 5574 5574 5575 5576 5576 5577 5578 5579 5580 5581 5582 5582 5583 5585 5586 5587 5588 5589 5590 5591 5592 5594 5595 5595 5596 5597 5597 5598 5599 5600 5600 5601 5601 5602 5603 5603 5604 5604
5621 5620 5618 5617 5616 5614 5613 5611 5609 5608 5606 5605 5603 5602 5600 5598 5597 5595 5594 5592 5591 5590 5589 5588 5587 5586 5585 5584 5583 5582 5581 5581 5580 5579 5579 5578 5578 5577 5576 5575 5575 5574 5573 5573 5573 5572 5572 5571 5571 5571 5571 5571 5571 5572 5572 5573 5574 5575 5576 5577 5577 5578 5579 5580 5581 5582 5583 5584 5584 5586 5587 5588 5589 5590 5591 5591 5592 5593 5593 5594 5594 5595 5596 5596 5596 5597 5597
5620 5619 5618 5617 5616 5614 5613 5611 5609 5608 5606 5604 5603 5601 5600 5599 5597 5596 5594 5593 5591 5590 5589 5588 5587 5586 5585 5584 5583 5582 5581 5580 5579 5579 5578 5577 5577 5576 5575 5574 5573 5572 5572 5571 5571 5570 5570 5569 5569 5568 5568 5568 5568 5568 5568 5569 5570 5571 5571 5572 5573 5573 5574 5575 5576 5577 5578 5578 5579 5580 5581 5582 5583 5584 5585 5585 5586 5586 5587 5588 5588 5589 5589 5590 5590 5590 5590
5620 5619 5618 5616 5615 5614 5612 5611 5610 5608 5606 5605 5603 5602 5600 5599 5597 5596 5594 5593 5591 5590 5589 5587 5586 5585 5584 5583 5582 5581 5580 5579 5578 5578 5577 5576 5575 5574 5574 5573 5572 5571 5571 5570 5569 5569 5568 5567 5567 5567 5566 5566 5566 5566 5566 5566 5566 5567 5567 5568 5568 5569 5570 5571 5571 5572 5573 5573 5574 5575 5576 5577 5578 5579 5579 5580 5581 5581 5582 5582 5583 5583 5584 5584 5584 5584 5585
5619 5618 5617 5616 5615 5613 5612 5610 5609 5608 5606 5604 5603 5601 5600 5598 5597 5595 5594 5592 5591 5590 5588 5587 5586 5585 5584 5583 5581 5580 5579 5579 5578 5577 5576 5575 5574 5573 5572 5572 5571 5570 5569 5569 5568 5567 5566 5566 5565 5565 5565 5564 5564 5564 5564 5564 5564 5564 5564 5564 5565 5565 5566 5567 5567 5568 5568 5569 5569 5570 5571 5572 5573 5574 5574 5575 5576 5577 5577 5578 5579 5579 5579 5579 5580 5580 5580
5618 5617 5616 5615 5614 5612 5611 5610 5608 5607 5605 5604 5602 5601 5599 5598 5596 5595 5593 5592 5590 5589 5588 5586 5585 5584 5583 5582 5581 5580 5579 5578 5576 5575 5574 5573 5573 5572 5571 5570 5569 5569 5568 5567 5566 5566 5565 5564 5564 5564 5563 5563 5562 5562 5562 5562 5562 5562 5562 5562 5562 5562 5563 5563 5564 5564 5564 5565 5566 5566 5567 5568 5568 5569 5570 5570 5571 5572 5572 5573 5574 5574 5574 5574 5574 5574 5575
5617 5616 5615 5614 5613 5612 5610 5609 5607 5606 5604 5603 5601 5600 5598 5597 5595 5594 5592 5591 5589 5588 5587 5585 5584 5583 5582 5581 5580 5578 5577 5576 5575 5574 5573 5572 5571 5571 5570 5569 5568 5567 5566 5566 5565 5564 5564 5563 5563 5562 5562 5561 5561 5561 5560 5560 5560 5560 5560 5560 5560 5560 5560 5561 5561 5561 5561 5562 5562 5563 5563 5564 5564 5565 5565 5566 5566 5567 5567 5567 5568 5568 5568 5568 5568 5568 5568
5616 5615 5614 5613 5612 5611 5609 5608 5607 5605 5603 5602 5600 5599 5597 5596 5594 5593 5591 5590 5588 5587 5586 5585 5583 5582 5581 5579 5578 5577 5576 5575 5574 5573 5572 5571 5570 5569 5568 5567 5567 5566 5565 5564 5563 5563 5562 5561 5561 5560 5560 5559 5559 5559 5558 5558 5558 5558 5558 5558 5558 5558 5558 5559 5559 5559 5559 5559 5560 5560 5560 5560 5560 5561 5561 5561 5562 5562 5562 5562 5562 5562 5562 5562 5562 5562 5562
5614 5613 5612 5611 5611 5609 5608 5607 5606 5604 5603 5601 5599 5598 5596 5595 5593 5592 5590 5588 5587 5586 5584 5583 5582 5580 5579 5578 5577 5576 5575 5574 5572 5571 5570 5569 5568 5567 5566 5566 5565 5564 5563 5563 5562 5561 5560 5560 5559 5558 5558 5558 5557 5557 5556 5556 5556 5556 5556 5556 5556 5556 5556 5556 5556 5556 5557 5557 5557 5557 5557 5557 5557 5557 5558 5558 5558 5558 5558 5557 5557 5557 5557 5557 5556 5556 5556
5613 5612 5611 5610 5609 5608 5607 5606 5604 5603 5602 5600 5598 5597 5595 5593 5592 5590 5589 5587 5585 5584 5583 5582 5580 5579 5578 5576 5575 5574 5573 5572 5571 5570 5569 5568 5567 5566 5565 5564 5563 5563 5562 5561 5560 5560 5559 5558 5558 5557 5556 5556 5555 5555 5555 5554 5554 5554 5553 5553 5553 5553 5553 5553 5553 5553 5553 5554 5554 5554 5554 5554 5554 5554 5554 5554 5554 5554 5554 5553 5553 5553 5552 5552 5552 5552 5551
5611 5610 5609 5608 5607 5606 5605 5604 5603 5602 5600 5599 5597 5595 5594 5592 5590 5589 5587 5585 5584 5582 5581 5580 5579 5577 5576 5575 5574 5572 5571 5570 5569 5568 5567 5566 5565 5565 5564 5563 5562 5561 5560 5559 5559 5558 5557 5556 5556 5555 5554 5554 5553 5553 5553 5552 5552 5552 5551 5551 5550 5550 5550 5550 5550 5550 5550 5550 5551 5551 5551 5551 5551 5551 5551 5551 5550 5550 5550 5549 5549 5549 5548 5548 5547 5547 5546
5609 5608 5607 5606 5605 5604 5603 5602 5601 5600 5599 5597 5595 5594 5593 5591 5589 5587 5586 5584 5582 5581 5579 5578 5577 5575 5574 5573 5572 5571 5570 5569 5568 5567 5565 5564 5564 5563 5562 5561 5560 5559 5559 5558 5557 5556 5555 5554 5554 5553 5552 5552 5551 5551 5551 5550 5550 5549 5549 5548 5548 5548 5548 5547 5547 5547 5547 5547 5547 5547 5547 5548 5547 5547 5547 5547 5546 5546 5546 5545 5545 5544 5544 5543 5543 5542 5541
5607 5606 5605 5604 5603 5602 5600 5599 5599 5598 5597 5595 5593 5592 5591 5589 5587 5585 5584 5582 5581 5579 5577 5576 5575 5573 5572 5571 5570 5569 5568 5567 5566 5565 5564 5563 5562 5561 5560 5559 5559 5558 5557 5556 5555 5554 5553 5552 5552 5551 5550 5550 5549 5549 5548 5548 5547 5547 5546 5546 5546 5545 5545 5545 5545 5544 5544 5544 5544 5544 5544 5544 5544 5544 5543 5543 5543 5542 5542 5541 5541 5540 5540 5539 5538 5537 5537
5605 5604 5603 5602 5601 5599 5598 5597 5596 5595 5594 5593 5591 5590 5589 5587 5585 5583 5582 5580 5579 5577 5575 5574 5573 5571 5570 5569 5568 5567 5566 5565 5564 5563 5562 5561 5560 5559 5558 5557 5557 5556 5555 5554 5553 5552 5551 5550 5549 5549 5548 5547 5547 5546 5545 5545 5545 5544 5544 5543 5543 5543 5542 5542 5542 5542 5541 5541 5541 5541 5541 5541 5541 5540 5540 5539 5539 5539 5538 5538 5537 5536 5536 5535 5534 5534 5533
5602 5601 5601 5599 5598 5597 5596 5595 5594 5593 5592 5590 5589 5588 5586 5584 5583 5581 5579 5578 5577 5575 5573 5572 5571 5570 5568 5567 5566 5565 5564 5563 5563 5562 5561 5560 5559 5558 5557 5556 5555 5554 5553 5552 5551 5550 5549 5548 5547 5546 5546 5545 5544 5543 5543 5542 5542 5542 5541 5541 5541 5540 5540 5540 5539 5539 5539 5539 5538 5538 5538 5538 5537 5537 5537 5536 5536 5535 5535 5534 5534 5533 5532 5531 5531 5530 5530
5600 5599 5598 5597 5596 5594 5594 5593 5591 5590 5589 5588 5587 5585 5584 5582 5580 5579 5577 5576 5574 5573 5572 5570 5569 5568 5566 5565 5564 5563 5562 5561 5560 5560 5559 5558 5557 5556 5555 5554 5553 5552 5551 5550 5549 5548 5547 5546 5545 5544 5543 5543 5542 5541 5540 5540 5539 5539 5539 5538 5538 5538 5537 5537 5537 5537 5536 5536 5536 5535 5535 5535 5534 5534 5534 5533 5533 5532 5532 5531 5530 5530 5529 5528 5528 5527 5527
5597 5596 5595 5594 5593 5592 5591 5590 5589 5588 5587 5585 5584 5583 5581 5579 5578 5576 5575 5573 5572 5571 5570 5568 5567 5566 5564 5563 5562 5561 5560 5559 5558 5557 5557 5556 5555 5554 5553 5552 5551 5550 5549 5547 5546 5545 5544 5543 5542 5541 5541 5540 5539 5539 5538 5537 5537 5536 5536 5536 5535 5535 5535 5534 5534 5534 5534 5533 5533 5532 5532 5532 5532 5531 5531 5530 5530 5529 5528 5528 5527 5526 5525 5525 5525 5525 5526
5594 5593 5592 5591 5590 5589 5588 5587 5586 5585 5584 5583 5581 5580 5578 5577 5575 5574 5573 5571 5570 5569 5567 5566 5565 5563 5562 5561 5560 5559 5558 5557 5556 5555 5555 5554 5553 5552 5551 5550 5549 5548 5546 5545 5544 5543 5542 5541 5540 5539 5538 5538 5537 5536 5535 5535 5534 5534 5533 5533 5533 5532 5532 5532 5532 5531 5531 5530 5530 5530 5529 5529 5529 5528 5528 5527 5527 5526 5526 5525 5524 5523 5523 5523 5523 5524 5524
5592 5591 5590 5589 5588 5587 5586 5585 5584 5582 5581 5580 5579 5577 5576 5574 5573 5571 5570 5569 5568 5566 5565 5564 5563 5562 5560 5559 5558 5557 5556 5555 5554 5554 5553 5552 5551 5550 5549 5548 5547 5546 5544 5543 5542 5541 5540 5539 5538 5537 5536 5535 5534 5533 5533 5532 5531 5531 5531 5530 5530 5530 5529 5529 5529 5529 5528 5528 5527 5527 5526 5526 5526 5525 5525 5525 5524 5524 5523 5522 5522 5521 5521 5521 5522 5522 5522
5589 5588 5587 5586 5585 5584 5583 5582 5581 5580 5578 5577 5576 5574 5573 5572 5570 5569 5568 5567 5565 5564 5563 5562 5560 5559 5558 5557 5556 5555 5554 5554 5553 5552 5551 5550 5549 5548 5546 5545 5544 5543 5542 5541 5540 5538 5537 5536 5535 5534 5533 5532 5531 5530 5530 5529 5529 5528 5528 5527 5527 5527 5526 5526 5526 5526 5525 5525 5524 5524 5524 5523 5523 5523 5522 5522 5522 5521 5520 5520 5519 5519 5519 5520 5520 5521 5521
5586 5585 5584 5583 5582 5581 5580 5579 5578 5577 5575 5574 5573 5571 5570 5569 5568 5567 5566 5564 5563 5562 5561 5560 5558 5557 5556 5555 5554 5553 5553 5552 5551 5550 5549 5548 5546 5545 5544 5543 5542 5540 5539 5538 5537 5536 5535 5534 5532 5531 5530 5529 5528 5528 5527 5527 5526 5526 5525 5525 5524 5524 5523 5523 5523 5523 5522 5522 5521 5521 5521 5520 5520 5520 5520 5519 5519 5519 5518 5518 5517 5517 5518 5518 5519 5519 5519
5583 5582 5581 5580 5579 5578 5577 5576 5575 5574 5572 5571 5570 5569 5568 5567 5566 5564 5563 5562 5561 5560 5559 5558 5556 5555 5555 5554 5552 5552 5551 5550 5549 5548 5546 5545 5544 5543 5541 5540 5539 5538 5536 5535 5534 5533 5532 5531 5530 5529 5527 5526 5525 5525 5524 5524 5523 5523 5522 5522 5521 5521 5521 5520 5520 5520 5519 5519 5518 5518 5518 5518 5517 5517 5517 5517 5516 5516 5516 5516 5515 5516 5516 5516 5517 5517 5518
5580 5580 5578 5577 5576 5576 5574 5573 5572 5571 5570 5568 5567 5566 5565 5564 5563 5562 5561 5560 5559 5557 5556 5556 5555 5554 5553 5552 5551 5550 5549 5548 5547 5545 5544 5543 5542 5540 5539 5537 5536 5535 5533 5532 5531 5530 5529 5528 5527 5526 5525 5523 5522 5521 5521 5520 5520 5519 5519 5518 5518 5518 5518 5517 5517 5516 5516 5516 5516 5515 5515 5515 5515 5514 5514 5514 5514 5514 5514 5513 5513 5514 5514 5515 5515 5515 5516
5577 5577 5575 5574 5574 5573 5572 5570 5569 5568 5567 5565 5564 5563 5562 5562 5561 5560 5558 5557 5556 5555 5554 5554 5553 5552 5551 5550 5549 5548 5547 5545 5544 5543 5542 5540 5539 5537 5535 5534 5533 5532 5531 5529 5528 5527 5526 5525 5524 5523 5521 5520 5519 5518 5518 5517 5517 5516 5516 5515 5515 5515 5514 5514 5514 5513 5513 5513 5513 5512 5512 5512 5512 5512 5512 5512 5512 5511 5511 5511 5511 5512 5512 5513 5513 5513 5514
5574 5573 5572 5571 5571 5570 5569 5568 5566 5565 5564 5563 5562 5561 5560 5559 5558 5557 5556 5555 5554 5553 5552 5551 5550 5550 5549 5548 5547 5545 5544 5543 5541 5540 5539 5537 5535 5534 5532 5531 5529 5528 5527 5526 5525 5524 5523 5522 5521 5519 5518 5517 5516 5515 5514 5514 5514 5513 5513 5512 5512 5511 5511 5511 5511 5510 5510 5509 5509 5509 5509 5509 5509 5509 5509 5509 5509 5509 5509 5509 5510 5510 5510 5511 5511 5511 5512
5571 5570 5569 5568 5567 5567 5566 5565 5564 5563 5561 5560 5559 5558 5557 5556 5556 5555 5554 5553 5552 5551 5550 5549 5548 5548 5547 5546 5544 5543 5542 5540 5538 5537 5536 5534 5532 5531 5529 5528 5526 5525 5523 5522 5521 5520 5520 5519 5517 5516 5514 5513 5513 5512 5511 5511 5510 5510 5509 5509 5508 5508 5508 5508 5507 5507 5507 5506 5506 5506 5506 5506 5506 5506 5506 5506 5506 5507 5507 5507 5508 5508 5508 5509 5509 5510 5510
5568 5567 5566 5565 5564 5564 5563 5562 5561 5560 5559 5558 5557 5556 5555 5554 5554 5553 5552 5551 5550 5549 5548 5547 5547 5546 5545 5544 5542 5540 5539 5537 5536 5534 5532 5530 5528 5527 5525 5524 5523 5522 5520 5518 5518 5517 5516 5515 5513 5512 5511 5510 5509 5508 5508 5507 5507 5506 5506 5505 5505 5504 5504 5504 5504 5504 5504 5503 5503 5503 5503 5503 5503 5503 5504 5504 5504 5504 5505 5505 5505 5506 5506 5507 5507 5508 5508
5565 5564 5563 5562 5561 5561 5560 5559 5558 5557 5556 5556 5555 5553 5552 5552 5552 5551 5550 5549 5548 5547 5546 5545 5545 5544 5543 5541 5540 5538 5536 5534 5533 5531 5529 5526 5524 5523 5521 5520 5519 5518 5516 5515 5514 5513 5512 5510 5509 5508 5507 5506 5506 5505 5504 5504 5503 5503 5502 5502 5501 5501 5501 5501 5501 5501 5501 5501 5500 5500 5500 5500 5500 5500 5501 5501 5501 5502 5502 5503 5503 5504 5504 5505 5505 5506 5506
5562 5560 5560 5559 5558 5557 5557 5556 5555 5554 5554 5553 5552 5551 5550 5550 5550 5549 5548 5547 5546 5545 5544 5543 5543 5541 5540 5539 5537 5535 5533 5531 5529 5527 5525 5523 5521 5519 5517 5516 5514 5513 5512 5511 5510 5509 5508 5506 5505 5504 5503 5503 5502 5501 5501 5500 5500 5500 5499 5499 5498 5498 5497 5497 5497 5498 5498 5498 5497 5497 5497 5497 5497 5497 5498 5498 5499 5499 5500 5500 5501 5502 5502 5503 5504 5504 5505
5558 5557 5556 5555 5555 5554 5554 5553 5552 5551 5551 5550 5549 5549 5548 5548 5548 5547 5546 5544 5544 5543 5542 5541 5540 5539 5538 5536 5534 5532 5530 5529 5527 5524 5522 5519 5517 5515 5513 5512 5510 5508 5507 5506 5505 5504 5503 5502 5501 5500 5499 5499 5498 5498 5497 5497 5496 5496 5496 5495 5495 5494 5494 5494 5494 5494 5494 5494 5494 5494 5494 5494 5494 5495 5495 5495 5496 5496 5497 5497 5498 5499 5500 5501 5502 5502 5503
5555 5554 5553 5552 5551 5551 5551 5550 5549 5549 5548 5547 5546 5546 5545 5545 5544 5544 5543 5542 5541 5540 5539 5538 5537 5536 5534 5533 5531 5529 5527 5525 5523 5520 5518 5515 5513 5511 5510 5508 5506 5504 5503 5502 5501 5499 5499 5498 5498 5497 5496 5495 5494 5494 5493 5493 5493 5492 5492 5492 5491 5491 5491 5490 5490 5490 5491 5491 5491 5491 5491 5491 5491 5491 5492 5492 5493 5493 5494 5494 5495 5496 5498 5498 5499 5500 5501